[[{"header":{"parameterUnit":"m.s-1","parameterCategory":1,"la1":30.2992,"la2":30.254,"lo1":-89.0895,"lo2":-89.0443,"dy":0.0025,"dx":0.0025,"nx":19,"ny":19,"refTime":"2026-05-04T03:00:00:Z","depth":0,"parameterNumber":2,"parameterNumberName":"U-component_of_WINDS"},"data":[0,0,0,-0.3835,-0.3837,-0.3955,-0.3956,-0.4095,-0.4096,0,0,0,0,0,0,0,0,0,0,0,-0.3791,-0.3792,-0.3835,-0.3838,-0.3955,-0.3956,-0.4095,-0.4096,0,0,0,0,0,0,0,0,0,0,0,-0.3791,-0.3792,-0.3792,-0.3838,-0.3955,-0.3956,-0.4095,-0.401,0,0,0,0,0,0,0,0,0,0,-0.3898,-0.3848,-0.3791,-0.3792,-0.3839,-0.3955,-0.3956,-0.4006,-0.4016,-0.4036,0,-0.405,0,-0.4075,-0.4105,-0.4105,0,0,0,-0.3845,-0.384,-0.388,-0.3793,-0.384,-0.3955,-0.3904,-0.4012,-0.4022,-0.4048,-0.4052,-0.4058,-0.4077,-0.4105,-0.4106,-0.4198,-0.4198,0,0,-0.3838,-0.3808,-0.3873,-0.3886,-0.3865,-0.39,-0.3908,-0.4018,-0.4021,-0.4053,-0.4061,-0.408,-0.4106,-0.4107,-0.4198,-0.4198,0,0,0,-0.3815,-0.3803,-0.384,-0.388,-0.3902,-0.3903,-0.3912,-0.4016,-0.4031,-0.4063,-0.4081,-0.4107,-0.4108,-0.4198,-0.4198,-0.4173,0,0,0,-0.3811,-0.3789,-0.3837,-0.382,-0.39,-0.396,-0.3907,-0.4023,-0.4037,-0.4081,-0.4107,-0.411,-0.4198,-0.4198,-0.4173,-0.4166,0,0,0,-0.3787,-0.3787,-0.38,-0.3818,-0.3867,-0.3959,-0.398,-0.4027,-0.4048,-0.4105,-0.411,-0.4198,-0.4198,-0.4174,-0.4167,-0.4182,0,0,0,-0.3752,-0.3776,-0.3799,-0.3833,-0.3866,-0.3942,-0.398,-0.4039,-0.4085,-0.4108,-0.4198,-0.4198,-0.4174,-0.4167,-0.4183,-0.419,-0.419,0,0,-0.3765,-0.3776,-0.3799,-0.3823,-0.3887,-0.3926,-0.3988,-0.4059,-0.4094,-0.4162,-0.4165,-0.4173,-0.4167,-0.4183,-0.4199,-0.4199,0,0,0,-0.3793,-0.3808,-0.3832,-0.3874,-0.3929,-0.3976,-0.4042,-0.4069,-0.4128,-0.4121,-0.4183,-0.4181,-0.4191,-0.4196,-0.4196,-0.4208,-0.4199,-0.4199,-0.4198,-0.3767,-0.3809,-0.385,-0.3907,-0.3948,-0.4016,-0.4054,-0.4102,-0.4133,-0.4147,-0.4167,-0.4172,-0.4177,-0.4177,-0.4189,-0.4174,-0.4174,-0.4174,-0.4174,-0.3791,-0.3821,-0.3862,-0.3916,-0.3962,-0.4009,-0.4077,-0.4098,-0.415,-0.416,-0.4171,-0.4178,-0.4175,-0.4188,-0.4173,-0.4173,-0.4173,-0.4173,-0.4173,-0.3779,-0.3801,-0.3833,-0.39,-0.3947,-0.4005,-0.4054,-0.4094,-0.4132,-0.4143,-0.417,-0.4171,-0.4178,-0.4153,-0.4153,-0.4153,-0.4153,-0.4153,-0.4153,-0.3754,-0.3792,-0.3827,-0.3888,-0.3922,-0.3972,-0.4042,-0.4077,-0.4127,-0.4152,-0.4153,-0.4183,-0.4166,-0.4162,-0.4154,-0.4153,-0.4153,-0.4153,-0.4153,-0.3764,-0.3769,-0.3822,-0.3856,-0.3934,-0.398,-0.403,-0.4099,-0.4134,-0.4157,-0.4186,-0.4166,-0.4181,-0.4182,-0.4179,-0.4175,-0.4175,-0.4175,-0.4175,-0.3755,-0.3766,-0.3832,-0.3883,-0.3939,-0.3991,-0.4054,-0.411,-0.417,-0.4195,-0.4201,-0.42,-0.4199,-0.4214,-0.4214,-0.4212,-0.4217,-0.4217,-0.4217,-0.3764,-0.3783,-0.3827,-0.3884,-0.3948,-0.4004,-0.4065,-0.4125,-0.4194,-0.422,-0.4216,-0.4214,-0.4213,-0.421,-0.4235,-0.4234,-0.423,0,0]},{"header":{"parameterUnit":"m.s-1","parameterCategory":1,"la1":30.2992,"la2":30.254,"lo1":-89.0895,"lo2":-89.0443,"dy":0.0025,"dx":0.0025,"nx":19,"ny":19,"refTime":"2026-05-04T03:00:00:Z","depth":0,"parameterNumber":3,"parameterNumberName":"V-component_of_WINDS"},"data":[0,0,0,5.5297,5.5298,5.5339,5.5339,5.5413,5.5414,0,0,0,0,0,0,0,0,0,0,0,5.53,5.5301,5.5297,5.5298,5.5339,5.5339,5.5413,5.5414,0,0,0,0,0,0,0,0,0,0,0,5.53,5.5301,5.5302,5.5298,5.5339,5.5339,5.5413,5.5374,0,0,0,0,0,0,0,0,0,0,5.533,5.5349,5.5301,5.5302,5.5299,5.5339,5.5339,5.5371,5.5376,5.5404,0,5.5436,0,5.5427,5.5421,5.5421,0,0,0,5.5286,5.5345,5.5342,5.5302,5.5299,5.5339,5.5317,5.5374,5.5379,5.5411,5.5437,5.5439,5.5428,5.5421,5.5422,5.5627,5.5628,0,0,5.5284,5.5316,5.5339,5.5346,5.5344,5.5316,5.5319,5.5377,5.5407,5.5437,5.544,5.5429,5.5422,5.5423,5.5626,5.5627,0,0,0,5.5285,5.5315,5.531,5.5344,5.535,5.5318,5.5321,5.5404,5.54,5.5441,5.543,5.5423,5.5424,5.5624,5.5626,5.5729,0,0,0,5.5283,5.5315,5.5309,5.5329,5.535,5.5378,5.5347,5.5396,5.5401,5.543,5.5423,5.5425,5.5622,5.5625,5.5723,5.5772,0,0,0,5.5292,5.5316,5.5328,5.5331,5.535,5.5376,5.5375,5.5396,5.5395,5.5421,5.5425,5.5621,5.5625,5.5717,5.5763,5.5832,0,0,0,5.531,5.5422,5.533,5.545,5.535,5.5442,5.5374,5.5441,5.5476,5.5423,5.5622,5.5626,5.5715,5.5757,5.5826,5.5893,5.5925,0,0,5.5469,5.5442,5.551,5.5429,5.5545,5.5433,5.5563,5.5565,5.5539,5.5598,5.5603,5.5725,5.5762,5.583,5.6101,5.6127,0,0,0,5.557,5.5619,5.5643,5.5677,5.5682,5.5687,5.5666,5.5666,5.5715,5.5577,5.577,5.5791,5.583,5.586,5.5882,5.591,5.5643,5.5642,5.5642,5.584,5.5798,5.5905,5.5868,5.5902,5.5877,5.59,5.5895,5.5846,5.5892,5.5908,5.6077,5.6114,5.613,5.6161,5.5944,5.5944,5.5944,5.5945,5.6064,5.6124,5.6052,5.613,5.6085,5.6149,5.6128,5.609,5.6141,5.6063,5.6095,5.6009,5.616,5.6184,5.5952,5.5951,5.595,5.5949,5.5949,5.6232,5.6253,5.6251,5.6292,5.6329,5.6287,5.6338,5.6296,5.6257,5.6289,5.6298,5.6296,5.6285,5.6297,5.6298,5.6298,5.6299,5.6299,5.63,5.6406,5.64,5.6448,5.6459,5.6472,5.6485,5.6459,5.647,5.6472,5.6437,5.6437,5.6379,5.6184,5.6133,5.6308,5.6307,5.6306,5.6305,5.6304,5.6642,5.6581,5.6656,5.6669,5.6675,5.6711,5.6656,5.6683,5.6687,5.6712,5.6647,5.6512,5.6481,5.6463,5.642,5.6659,5.6659,5.6659,5.6659,5.6781,5.6761,5.6825,5.6848,5.6866,5.6823,5.6904,5.6883,5.6852,5.6851,5.6811,5.6752,5.6736,5.6715,5.6691,5.665,5.6942,5.6943,5.6943,5.6921,5.69,5.6978,5.6947,5.6947,5.6947,5.702,5.7047,5.7,5.6953,5.6847,5.6835,5.674,5.6712,5.6661,5.6626,5.655,0,0]}]]